Portada
METAR-TAF:

METAR-TAF

Aeropuertos :

Jendouba, Túnez

latitud: 36-29N, longitud: 008-48E, altitud: 143 m

Observación

El informe se hizo hace 34 minutos, a las 14:00 UTC
Viento 9 kt del sureste, variando entre este-noreste y sur-suroeste
Temperatura 43°C
Humedad 6%
Presión 1012 hPa
Visibilidad 10 km o más
Nubes dispersas a una altura de 2000 ft

METAR: DTTN 201400Z 14009KT 070V200 9999 SCT020 43/M02 Q1012 SIROCCO

Hora: 15:34 (14:34 UTC)


TAF: falta

Observaciones y pronósticos meteorológicos de más de 4000 aeropuertos (mensajes METAR y TAF).

Los puntos amarillos y rojos representan las estaciones disponibles.

Ponga el ratón en el punto deseado para ver el nombre de la estación.

Haga clic para ver las observaciones y los pronósticos meteorológicos.

Para cambiar el mapa : haga clic en los botones verdes con una cruz de color negro para hacer un zoom, en el botón verde con un guión para alejar o en las flechas verdes para mapas adyacentes.


METAR-TAF: